User: anonymous   Login
Location: Unspecified
(43.4354°N, 0.0000°E)
Time: 10:31:20
(UTC+00:00)
Language:

Courier 1B Rocket - Orbit

View from above orbital plane
View from above orbital plane
View from above satellite
View from above satellite

Ground track
Ground track

The orbit data is extracted from the following two-line orbital elements,

1    59U 60013B   20217.72423652 +.00000102 +00000-0 +20074-4 0  9997
2    59 028.2503 330.2521 0189308 331.3258 027.6991 13.52978181953147
Epoch (UTC): 04 August 2020 17:22:54
Eccentricity: 0.0189308
inclination: 28.2503°
perigee height: 920 km
apogee height: 1202 km
right ascension of ascending node: 330.2521°
argument of perigee: 331.3258°
revolutions per day: 13.52978181
mean anomaly at epoch: 27.6991°
orbit number at epoch: 95314

The dashed part of the orbit path shows where the satellite is in the earth's shadow,  

DLR